Location: NJAA Observatory
(40.6819°N, 74.8979°W)
Time: 08:11:31
(UTC-04:00)

Cosmos 2263 Rocket - Visible Passes

Search period start: 23 March 2017 00:00
Search period end: 02 April 2017 00:00
Orbit: 824 x 848 km, 71.0° (Epoch: 21 March)

Date Brightness Start Highest point End Pass type
(mag) Time Alt. Az. Time Alt. Az. Time Alt. Az.
23 Mar 3.1 03:44:51 10° NNW 03:56:03 - SE 03:49:51 44° NE visible
23 Mar 3.7 05:29:22 10° NW 05:38:12 10° SSW 05:38:13 10° SSW visible
23 Mar 5.0 20:21:38 10° W 20:24:41 15° NW 20:27:45 10° NNW visible
24 Mar 3.8 03:28:11 10° N 03:31:06 28° N 03:31:06 28° N visible
24 Mar 4.3 05:12:32 10° NW 05:12:41 11° NW 05:12:41 11° NW visible
24 Mar 4.9 20:04:33 10° W 20:07:53 16° NW 20:11:14 10° NNW visible
25 Mar 4.2 03:11:31 10° N 03:13:34 21° N 03:13:34 21° N visible
25 Mar 4.9 19:47:32 10° W 19:51:07 17° NW 19:54:42 10° N visible
26 Mar 4.5 02:54:52 10° N 02:56:25 18° N 02:56:25 18° N visible
27 Mar 4.6 02:38:14 10° N 02:39:28 16° N 02:39:28 16° N visible
28 Mar 4.7 02:21:36 10° N 02:22:39 15° N 02:22:39 15° N visible
29 Mar 4.8 02:04:57 10° N 02:05:55 14° N 02:05:55 14° N visible
30 Mar 4.8 01:48:20 10° N 01:49:14 14° N 01:49:14 14° N visible
31 Mar 4.9 01:31:43 10° N 01:32:37 14° N 01:32:37 14° N visible
01 Apr 4.9 01:15:06 10° N 01:16:02 14° N 01:16:02 14° N visible
